Regional Weather Roundup
Issued by NWS

Home | Current Version | Previous Version | Graphics & Text | Print | Product List | Glossary On
Versions: 1 2 3 4 5 6 7 8 9 10 11 12 13 14 15 16 17 18 19 20 21 22 23 24 25 26 27 28 29 30 31 32 33 34 35 36 37 38 39 40 41 42 43 44 45 46 47 48 49 50
000
ASUS43 KIND 190109
RWRIN

WEATHER ROUNDUP FOR INDIANA
NATIONAL WEATHER SERVICE INDIANAPOLIS IN
800 PM EST SUN FEB 18 2018

NOTE: "FAIR" INDICATES FEW OR NO CLOUDS BELOW 12,000 FEET WITH NO
SIGNIFICANT WEATHER AND/OR OBSTRUCTIONS TO VISIBILITY.

* - STATION DOES NOT REPORT WEATHER SUCH AS PRECIPITATION OR FOG.

+ - STATION NOT QUALITY CONTROLLED BY THE NATIONAL WEATHER SERVICE.
    USE DATA WITH CAUTION...ESPECIALLY DEWPOINT AND RELATIVE
    HUMIDITY OBSERVATIONS.

INZ001>003-010>013-019-020-190200-
NORTHWEST INDIANA

CITY           SKY/WX    TMP DP  RH WIND       PRES   REMARKS
GARY /AIRPORT/ MOCLDY    37  32  81 SE14G28   30.01F WCI  29
LA PORTE +     FAIR      35  30  83 SE14      30.04F WCI  25
MICHIGAN CITY+ FAIR      36  30  80 SE12G22   30.02F WCI  27
MONTICELLO +   FAIR      38  32  79 SE7       30.06F WCI  33
RENSSELAER +   FAIR      37  30  75 SE15      30.04F WCI  28
VALPARAISO     FAIR      38  31  76 SE14G22   30.03F WCI  30

$$

LMZ046-743>745-190200-
SOUTHERN LAKE MICHIGAN

STATION/POSITION TIME  TEMP    WIND        PRES    WAVE
                       AIR SEA DIR/SP/G            HT
                 (UTC) (F)     (DEG/KT/KT) (MB)    (FT)
BURNS HARBOR     0040   38     140/ 18/ 26 1016.6F
MICHIGAN CITY    0040   36     130/ 16/ 21   N/A

$$

INZ004-005-014>016-021>024-190200-
NORTH CENTRAL INDIANA

CITY           SKY/WX    TMP DP  RH WIND       PRES   REMARKS
GOSHEN         FAIR      35  29  78 SE13      30.09F WCI  26
LOGANSPORT +   FAIR      34  32  93 SE10      30.09F WCI  26
PERU/GRISSOM   FAIR      37  37  99 SE13      30.09F WCI  29
ROCHESTER +    FAIR      37  32  81 SE9       30.09F WCI  31
SOUTH BEND     FAIR      34  29  82 SE15      30.06F WCI  24
WARSAW +       FAIR      34  32  93 SE9       30.10F WCI  26

$$

INZ006>009-017-018-025>027-190200-
NORTHEAST INDIANA

CITY           SKY/WX    TMP DP  RH WIND       PRES   REMARKS
AUBURN +       FAIR      36  32  87 SE5       30.14F WCI  32
FORT WAYNE     MOCLDY    37  31  78 SE10      30.15F WCI  30
HUNTINGTON +   FAIR      37  31  78 SE8       30.12F WCI  31
KENDALLVILLE + FAIR      33  31  91 SE10      30.12F WCI  25

$$

INZ028-029-035-036-043>045-051>053-190200-
WEST CENTRAL INDIANA

CITY           SKY/WX    TMP DP  RH WIND       PRES   REMARKS
CRAWFORDSVL +  FAIR      38  31  77 SE9       30.07F WCI  31
GREENCASTLE +  FAIR      39  32  75 SE8       30.09F WCI  34
LAFAYETTE      FAIR      40  31  70 SE8       30.07F WCI  34
TERRE HAUTE    FAIR      42  32  67 SE7       30.08F

$$

INZ030>032-037>040-046>048-054>057-064-065-190200-
CENTRAL INDIANA

CITY           SKY/WX    TMP DP  RH WIND       PRES   REMARKS
COLUMBUS       MOCLDY    39  30  70 SE7       30.15F WCI  34
FRANKFORT +    FAIR      40  34  80 S10       30.10F WCI  33
GREENWOOD *+   FAIR     N/A N/A N/A SE8       30.13F
INDIANAPOLIS   MOCLDY    41  32  70 SE9       30.11F
-EAGLE CREEK   FAIR      44  31  60 SE9       30.10F
KOKOMO +       FAIR      37  32  82 SE10      30.11F WCI  30
MARION +       FAIR      37  32  81 SE10      30.12F WCI  30
MT COMFORT *+  FAIR      39  36  87 SE8       30.12F WCI  34
SHELBYVILLE    FAIR      42  33  70 SE8       30.13F
ZIONSVILLE +   FAIR      39  32  76 SE9       30.10F WCI  33

$$

INZ033-034-041-042-049-050-058-059-190200-
EAST CENTRAL INDIANA

CITY           SKY/WX    TMP DP  RH WIND       PRES   REMARKS
MUNCIE         FAIR      40  31  70 SE7       30.13F WCI  35
RICHMOND +     FAIR      36  32  87 SE9       30.17F WCI  29

$$

INZ060-061-067>069-081>083-085>088-190200-
SOUTHWEST INDIANA

CITY           SKY/WX    TMP DP  RH WIND       PRES   REMARKS
EVANSVILLE     FAIR      48  34  58 SE6       30.08F
HUNTINGBURG +  FAIR      44  34  67 SE8       30.10F
WASHINGTON +   FAIR      43  33  68 SE8       30.10F

$$

INZ062-063-066-070>080-084-089>092-190200-
SOUTH CENTRAL AND SOUTHEAST INDIANA

CITY           SKY/WX    TMP DP  RH WIND       PRES   REMARKS
BATESVILLE +   CLEAR     39  36  87 MISG      30.15F
BEDFORD +      FAIR      45  30  57 SE9       30.11
BLOOMINGTON    FAIR      43  31  62 SE6       30.10F
FRENCH LICK *+ FAIR      45  28  53 SE6       30.10F
MADISON *+     FAIR      45  32  61 SE7       30.18S
NORTH VERNON + FAIR      41  30  65 SE5       30.16F
SEYMOUR +      FAIR      41  32  70 E6        30.14F

$$





USA.gov is the U.S. government's official web portal to all federal, state and local government web resources and services.